Simultaneous Nadir Overpasses (SNOs) Predictions

Prediction of SNOs between LANDSAT-8 and METOP-A Satellite Orbit:

Table of predicted SNOs for the next 14.0 days since TLE Epoch: 12/29/2018
Index Date (LANDSAT-8) Time (LANDSAT-8) Lat,Lon (LANDSAT-8) SZA (LANDSAT-8 ) Date (METOP-A) Time (METOP-A) Lat,Lon (METOP-A) SZA (METOP-A ) Distance(km) Time Diff (sec)
1 12/29/2018 21:31:34 -81.43, 82.32 73.07 12/29/2018 21:30:57 -81.43, 82.31 73.09 0.16 37
2 12/29/2018 22:21:00 81.43,-109.92 106.95 12/29/2018 22:21:36 81.43,-109.82 106.97 1.72 36
3 01/01/2019 17:05:49 -81.43, 148.84 73.30 01/01/2019 17:05:12 -81.43, 148.69 73.33 2.61 37
4 01/01/2019 17:55:15 81.44, -43.43 106.72 01/01/2019 17:55:51 81.43, -43.47 106.73 0.78 36
5 01/04/2019 12:40:04 -81.43,-144.67 73.59 01/04/2019 12:39:26 -81.43,-144.55 73.59 1.88 38
6 01/04/2019 13:29:30 81.44, 23.04 106.42 01/04/2019 13:30:06 81.43, 22.87 106.42 2.81 36
7 01/07/2019 08:14:18 -81.44, -78.20 73.94 01/07/2019 08:13:40 -81.43, -78.21 73.96 0.61 38
8 01/07/2019 09:03:44 81.44, 89.48 106.07 01/07/2019 09:04:19 81.43, 89.60 106.09 2.10 35
9 01/10/2019 03:48:33 -81.44, -11.77 74.35 01/10/2019 03:47:55 -81.43, -11.87 74.38 1.90 38




NCC Satellite Simultaneous Nadir Overpasses (SNOs) Prediction Service
